Вернуться в каталог

DELTA 1 DEB

АктивенSSO
NORAD 12246·DEBRIS·🇺🇸 United States

Запущен Mar 5, 1978 с Vandenberg Space Force Base

Loading…

Ближайшие Пролёты (ближайшие 24 часа)

TLE

СвежийSource: Space-Track

Эпоха: Sep 14, 2026, 22:21 UTC

1 12246U 78026CP  26257.93186407  .00000618  00000-0  40243-3 0  9999
2 12246  99.0664 145.7035 0055529  81.7109 342.4673 14.05475601330455

Отслеживайте DELTA 1 DEB в реальном времени с AllMySat

Download on the App Store